Goldsboro, NC

10:21 PM EDT on July 27, 2017 (GMT -0400)
Goldsboro-Wayne Municipal

Weather History for KGWW - October, 2013

Change the Weather History Date:

Sunday, October 6, 2013

  Actual Average (KGSB) Record (KGSB)
Temperature  
Mean Temperature 72 °F -  
Max Temperature 82 °F 75 °F 95 °F (1997)
Min Temperature 62 °F 55 °F 44 °F (2010)
Cooling Degree Days 7    
Growing Degree Days 22 (Base 50)    
Moisture  
Dew Point 69 °F    
Average Humidity 94    
Maximum Humidity 100    
Minimum Humidity 68    
Precipitation  
Precipitation 0.10 in - - ()
Sea Level Pressure  
Sea Level Pressure 30.04 in    
Wind  
Wind Speed 2 mph (SE)    
Max Wind Speed 13 mph    
Max Gust Speed -    
Visibility 7 miles    
Events Fog , Rain    
Averages and records for this station are not official NWS values.
T = Trace of Precipitation, MM = Missing Value Source: NWS Daily Summary

Daily Weather History Graph

Daily Weather History Graph

Search for Another Location

Airport or City:

Trip Planner

Search our weather history database for the weather conditions in past years. The results will help you decide how hot, cold, wet, or windy it might be!

Date:

Astronomy

Oct. 06, 2013 Rise Set
Actual Time 7:10 AM EDT 6:48 PM EDT
Civil Twilight 6:45 AM EDT 7:13 PM EDT
Nautical Twilight 6:15 AM EDT 7:43 PM EDT
Astronomical Twilight 5:46 AM EDT 8:12 PM EDT
Moon 8:48 AM EDT (10/6) 7:51 PM EDT (10/6)
Length of Visible Light 12h 28m
Length of Day
11h 37m
Waxing Crescent, 3% of the Moon is Illuminated
Oct 6
Waxing Crescent
Oct 11
First Quarter
Oct 18
Full
Oct 26
Last Quarter
Nov 3
New

Hourly Weather History & Observations

Time (EDT) Temp. Heat Index Dew Point Humidity Pressure Visibility Wind Dir Wind Speed Gust Speed Precip Events Conditions
12:15 AM 70.0 °F - 68.2 °F 94% 30.08 in 10.0 mi South 4.6 mph - N/A   Clear
12:35 AM 69.6 °F - 68.2 °F 95% 30.08 in 10.0 mi Calm Calm - N/A   Clear
12:55 AM 68.9 °F - 68.0 °F 97% 30.08 in 10.0 mi Calm Calm - N/A   Clear
1:15 AM 67.5 °F - 66.9 °F 98% 30.08 in 10.0 mi Calm Calm - N/A   Clear
1:35 AM 67.1 °F - 67.1 °F 100% 30.08 in 7.0 mi SSW 3.5 mph - N/A   Clear
1:55 AM 66.4 °F - 66.4 °F 100% 30.08 in 5.0 mi Calm Calm - N/A   Clear
2:15 AM 65.8 °F - 65.8 °F 100% 30.07 in 2.5 mi Calm Calm - N/A   Clear
2:35 AM 65.7 °F - 65.7 °F 100% 30.06 in 2.5 mi Calm Calm - N/A   Clear
2:55 AM 64.8 °F - 64.8 °F 100% 30.06 in 7.0 mi Calm Calm - N/A   Clear
3:15 AM 64.4 °F - 64.4 °F 100% 30.05 in 5.0 mi Calm Calm - N/A   Clear
3:35 AM 64.0 °F - 64.0 °F 100% 30.05 in 0.5 mi Calm Calm - N/A Fog Fog
3:55 AM 62.2 °F - 62.2 °F 100% 30.05 in 0.2 mi Calm Calm - N/A Fog Fog
4:15 AM 63.1 °F - 63.1 °F 100% 30.05 in 0.8 mi Calm Calm - N/A   Mostly Cloudy
4:35 AM 63.3 °F - 63.3 °F 100% 30.05 in 0.5 mi Calm Calm - N/A Fog Fog
4:55 AM 62.6 °F - 62.6 °F 100% 30.05 in 0.2 mi Calm Calm - N/A Fog Fog
5:15 AM 62.6 °F - 62.6 °F 100% 30.05 in 0.2 mi Calm Calm - N/A Fog Fog
5:35 AM 63.5 °F - 63.5 °F 100% 30.05 in 0.2 mi Calm Calm - N/A Fog Fog
5:55 AM 63.5 °F - 63.5 °F 100% 30.06 in 0.2 mi Calm Calm - N/A Rain Light Rain
6:15 AM 63.7 °F - 63.7 °F 100% 30.06 in 0.2 mi Calm Calm - N/A   Drizzle
6:35 AM 64.0 °F - 64.0 °F 100% 30.06 in 0.2 mi Calm Calm - N/A Fog Fog
6:55 AM 64.4 °F - 64.4 °F 100% 30.06 in 0.2 mi Calm Calm - N/A Fog Fog
7:15 AM 64.6 °F - 64.6 °F 100% 30.06 in 0.2 mi Calm Calm - N/A Fog Fog
7:35 AM 64.6 °F - 64.6 °F 100% 30.07 in 0.2 mi Calm Calm - N/A Fog Fog
7:55 AM 64.8 °F - 64.8 °F 100% 30.07 in 0.2 mi Calm Calm - N/A Fog Fog
8:15 AM 65.3 °F - 65.3 °F 100% 30.08 in 0.2 mi Calm Calm - N/A Fog Fog
8:35 AM 65.8 °F - 65.8 °F 100% 30.08 in 0.2 mi Calm Calm - N/A   Light Drizzle
8:55 AM 66.4 °F - 66.4 °F 100% 30.09 in 0.2 mi Calm Calm - N/A   Drizzle
9:15 AM 67.3 °F - 67.3 °F 100% 30.09 in 0.2 mi Calm Calm - N/A   Light Drizzle
9:35 AM 68.0 °F - 68.0 °F 100% 30.09 in 0.2 mi Calm Calm - N/A Fog Fog
9:55 AM 68.9 °F - 68.9 °F 100% 30.09 in 0.5 mi Calm Calm - N/A Fog Fog
10:15 AM 69.6 °F - 69.6 °F 100% 30.09 in 2.0 mi Calm Calm - N/A   Overcast
10:35 AM 71.8 °F - 71.8 °F 100% 30.09 in 10.0 mi Calm Calm - N/A   Overcast
10:55 AM 72.0 °F - 72.0 °F 100% 30.09 in 10.0 mi SE 3.5 mph - N/A   Overcast
11:15 AM 74.3 °F - 73.2 °F 96% 30.08 in 10.0 mi Calm Calm - N/A   Mostly Cloudy
11:35 AM 75.4 °F - 72.9 °F 92% 30.08 in 10.0 mi Calm Calm - N/A   Overcast
11:55 AM 76.8 °F - 72.5 °F 86% 30.07 in 10.0 mi SSE 4.6 mph - N/A   Overcast
12:15 PM 81.5 °F 85.7 °F 71.2 °F 71% 30.06 in 10.0 mi South 6.9 mph - N/A   Mostly Cloudy
12:35 PM 79.0 °F - 70.9 °F 76% 30.05 in 10.0 mi SSE 4.6 mph - N/A   Mostly Cloudy
12:55 PM 80.8 °F 84.4 °F 70.7 °F 71% 30.05 in 10.0 mi South 6.9 mph - N/A   Mostly Cloudy
1:15 PM 78.1 °F - 71.4 °F 80% 30.05 in 7.0 mi SSE 6.9 mph - N/A Rain Light Rain
1:35 PM 74.1 °F - 72.7 °F 95% 30.04 in 3.0 mi Calm Calm - 0.07 in Rain Light Rain
1:55 PM 75.6 °F - 74.1 °F 95% 30.03 in 10.0 mi ENE 3.5 mph - 0.07 in   Overcast
2:15 PM 77.9 °F - 73.4 °F 86% 30.02 in 10.0 mi ENE 4.6 mph - N/A   Mostly Cloudy
2:35 PM 79.7 °F - 72.9 °F 80% 30.02 in 10.0 mi East 5.8 mph - N/A   Scattered Clouds
2:55 PM 81.7 °F 86.5 °F 72.3 °F 73% 30.01 in 10.0 mi SE 5.8 mph - N/A   Scattered Clouds
3:15 PM 82.9 °F 87.7 °F 71.6 °F 68% 30.00 in 10.0 mi SE 3.5 mph - N/A   Clear
3:35 PM 79.2 °F - 70.3 °F 74% 30.00 in 10.0 mi SE 12.7 mph - N/A   Mostly Cloudy
3:55 PM 74.5 °F - 72.1 °F 92% 30.01 in 7.0 mi SSE 5.8 mph - 0.02 in Rain Rain
4:15 PM 73.6 °F - 73.0 °F 98% 30.00 in 10.0 mi ESE 3.5 mph - 0.01 in Rain Light Rain
4:35 PM 76.5 °F - 74.3 °F 93% 29.99 in 10.0 mi ESE 4.6 mph - 0.01 in   Mostly Cloudy
4:55 PM 76.5 °F - 74.3 °F 93% 29.99 in 10.0 mi SSE 5.8 mph - 0.01 in   Scattered Clouds
5:15 PM 77.0 °F - 73.2 °F 88% 29.99 in 10.0 mi SSE 5.8 mph - N/A   Scattered Clouds
5:35 PM 76.5 °F - 72.0 °F 86% 29.98 in 10.0 mi SSE 6.9 mph - N/A   Scattered Clouds
5:55 PM 75.9 °F - 71.6 °F 86% 29.98 in 10.0 mi SSE 5.8 mph - N/A   Scattered Clouds
6:15 PM 75.2 °F - 71.6 °F 89% 29.98 in 10.0 mi SSE 3.5 mph - N/A   Mostly Cloudy
6:35 PM 74.8 °F - 71.6 °F 90% 29.99 in 10.0 mi SSE 3.5 mph - N/A   Mostly Cloudy
6:55 PM 74.5 °F - 71.6 °F 91% 29.99 in 10.0 mi SSE 3.5 mph - N/A   Mostly Cloudy
7:15 PM 74.1 °F - 70.9 °F 90% 29.98 in 10.0 mi SE 6.9 mph - N/A   Overcast
7:35 PM 73.8 °F - 70.3 °F 89% 29.99 in 10.0 mi SSE 5.8 mph - N/A   Mostly Cloudy
7:55 PM 73.4 °F - 70.3 °F 90% 29.99 in 10.0 mi SSE 5.8 mph - N/A   Mostly Cloudy
8:15 PM 72.9 °F - 70.7 °F 93% 29.99 in 10.0 mi SSE 5.8 mph - N/A   Overcast
8:35 PM 72.5 °F - 70.7 °F 94% 29.99 in 10.0 mi SE 6.9 mph - N/A   Mostly Cloudy
8:55 PM 72.5 °F - 70.7 °F 94% 29.99 in 10.0 mi SSE 4.6 mph - N/A   Mostly Cloudy
9:15 PM 72.3 °F - 70.7 °F 95% 30.00 in 10.0 mi SSE 4.6 mph - N/A   Scattered Clouds
9:35 PM 72.0 °F - 70.7 °F 96% 30.00 in 10.0 mi SE 4.6 mph - N/A   Clear
9:55 PM 71.8 °F - 70.7 °F 96% 30.00 in 10.0 mi SSE 5.8 mph - N/A   Clear
10:15 PM 71.6 °F - 70.9 °F 98% 29.99 in 10.0 mi SSE 5.8 mph - N/A   Clear
10:35 PM 71.6 °F - 70.9 °F 98% 29.99 in 10.0 mi SSE 4.6 mph - N/A   Clear
10:55 PM 71.2 °F - 70.9 °F 99% 29.98 in 10.0 mi SSE 4.6 mph - N/A   Clear
11:15 PM 71.1 °F - 70.9 °F 99% 29.98 in 10.0 mi SSE 4.6 mph - N/A   Clear
11:35 PM 71.1 °F - 70.9 °F 99% 29.97 in 10.0 mi SE 4.6 mph - N/A   Clear
11:55 PM 71.1 °F - 70.9 °F 99% 29.97 in 10.0 mi SSE 3.5 mph - N/A   Clear